Location: Moscow
(30.9132°N, 94.8252°W)
Time: 11:03:22
(UTC+00:00)

Aurora 2 Rocket - Pass Details

Date: 15 November 2025
Orbit: 385 x 1546 km, 25.0° (Epoch: 11 December)

Event Time Altitude Azimuth Distance (km) Brightness Sun altitude
Rises 01:47:14 0° 253° (WSW) 4,707 8.1 -31.2°
Reaches altitude 10° 01:50:35 10° 250° (WSW) 3,711 7.3 -31.9°
Maximum altitude 02:00:08 57° 175° (S) 1,620 4.4 -33.9°
Enters shadow 02:00:26 57° 167° (SSE) 1,617 4.4 -34.0°
